Theta_e
323 318 315 310 299 294 291 294 301 300 304 315 314 317 324 327 323 312 334 338 338 340 343 345 347 349 349 350 350 350 351 351 351 350 350 351 351 351 351 350 350 350 349 347 345 343 343 342 343
316 317 312 305 295 289 295 302 299 305 315 316 316 317 324 325 332 332 334 339 340 342 343 344 347 347 348 349 350 350 351 350 350 349 349 349 351 351 350 350 349 349 348 348 346 343 342 340 338
319 316 304 298 294 294 296 303 302 309 315 316 313 321 328 327 334 333 339 340 341 340 343 345 345 346 348 348 349 349 349 349 348 348 349 349 349 350 348 348 347 345 346 345 342 340 336 333 332
313 309 305 294 293 299 302 305 305 307 311 317 315 323 331 337 336 338 340 341 339 339 342 343 344 345 347 348 349 349 348 347 347 347 348 348 347 346 345 344 344 342 341 339 337 335 332 329 327
312 304 295 293 295 301 305 307 307 304 308 311 315 321 328 337 340 340 339 341 337 339 341 343 342 345 347 349 349 347 346 346 346 347 347 346 344 342 341 341 340 338 337 335 332 330 327 325 324
301 301 292 291 297 304 306 308 308 307 311 310 312 322 328 338 337 336 340 339 339 340 341 342 344 344 345 346 346 344 344 344 345 345 345 343 341 339 337 336 335 333 331 330 328 325 323 321 319
300 296 292 294 296 300 305 308 307 308 312 320 318 321 329 333 337 338 338 339 341 341 340 341 342 343 343 342 341 340 341 342 342 341 340 338 336 335 334 332 331 329 328 326 323 321 319 318 316
303 299 295 295 296 296 305 308 311 308 309 325 325 320 324 332 338 341 342 340 339 339 338 339 339 340 339 339 339 339 339 339 338 337 336 334 333 332 331 328 327 325 324 323 320 318 317 315 317
307 295 294 294 298 301 306 306 309 311 311 312 322 329 335 337 338 338 337 337 336 337 337 337 338 338 338 339 340 338 338 337 335 335 333 329 325 323 323 324 324 323 321 320 318 317 316 317 318
301 296 297 303 304 302 306 306 305 304 306 310 323 334 336 336 336 334 333 333 335 335 335 338 337 336 337 338 337 335 335 333 329 328 327 324 321 318 319 321 322 320 319 318 317 317 316 316 305
305 299 303 305 306 306 304 304 305 302 301 306 308 329 333 333 334 333 332 335 335 336 337 337 337 336 335 334 333 332 331 329 326 325 324 320 319 317 313 311 312 308 314 307 311 310 307 307 306
301 306 307 307 308 306 303 304 304 302 304 309 309 332 332 331 332 332 332 333 334 336 337 338 337 334 333 333 332 331 330 329 325 324 322 315 313 309 307 306 305 306 307 305 304 304 304 304 306
304 305 307 308 308 306 308 304 304 303 307 310 311 332 332 332 332 334 335 334 334 335 337 338 337 334 332 331 332 331 330 329 325 322 323 316 312 308 306 306 307 307 307 305 303 304 304 303 305
307 307 307 307 307 307 306 306 305 307 308 309 310 311 332 332 333 333 333 333 333 334 334 336 335 334 333 331 331 331 331 329 326 323 320 315 313 311 309 307 305 304 304 303 303 303 302 303 304
305 300 303 304 304 304 306 302 303 308 308 307 308 309 316 331 333 332 333 332 333 333 334 333 334 334 334 332 331 331 330 329 325 322 317 315 313 310 307 305 303 303 304 304 303 302 303 303 304
301 299 294 302 305 307 304 297 306 309 308 305 307 308 309 325 331 333 333 333 333 332 332 333 335 333 333 332 332 332 327 326 321 320 316 314 313 310 306 306 304 304 304 302 302 301 301 302 301
299 293 294 298 306 305 303 299 306 307 306 305 304 305 307 307 329 332 334 334 333 332 331 331 333 332 331 331 330 326 322 319 316 315 314 312 311 310 307 305 304 304 303 303 303 302 301 300 300
294 295 298 297 303 304 301 301 304 306 304 303 304 305 306 306 311 328 332 333 334 332 331 330 331 331 331 330 325 321 318 315 312 313 312 311 310 309 306 304 303 303 302 302 301 301 301 301 300
301 299 298 302 306 304 302 302 304 305 304 303 303 303 305 307 310 312 329 333 333 330 328 328 328 330 329 326 321 317 315 311 309 311 312 309 309 308 306 304 302 303 301 300 300 300 299 299 299
302 300 298 302 305 304 302 301 304 305 306 305 305 304 304 305 308 312 320 331 331 330 328 326 327 327 327 324 321 316 316 313 311 309 311 310 308 306 305 304 302 303 301 302 301 299 299 298 300
299 298 299 299 302 303 300 298 301 305 306 308 308 307 305 305 306 308 317 330 331 330 328 326 327 325 325 323 318 313 314 310 307 306 308 308 308 306 304 303 303 302 303 301 300 299 298 296 297
293 301 300 299 297 292 299 289 298 302 303 306 304 302 303 304 306 308 310 326 329 329 330 328 326 322 322 319 315 312 309 308 308 305 309 309 307 306 304 304 303 302 302 302 302 303 298 295 293
296 302 300 299 294 294 295 292 296 301 300 300 300 300 300 301 302 304 307 310 328 328 328 327 324 321 320 316 315 312 310 310 309 309 308 307 306 305 305 303 302 300 301 301 301 299 299 296 295
300 298 297 296 293 287 294 292 292 293 295 296 298 299 299 300 301 303 306 309 322 323 326 325 323 321 320 316 315 312 310 308 306 305 306 306 305 304 304 303 301 300 299 299 298 298 296 295 297
295 292 282 281 282 283 294 291 293 294 298 297 296 296 297 298 299 302 303 306 307 314 322 322 322 319 319 318 316 313 311 308 306 305 305 305 305 305 304 302 301 300 298 298 297 296 295 294 293
294 293 282 279 279 283 293 288 292 297 298 298 298 297 296 296 297 300 304 304 307 308 316 321 322 319 319 318 316 312 312 309 307 306 306 305 305 304 303 302 301 299 298 297 296 295 293 293 292
292 288 293 287 287 283 286 291 294 296 295 295 295 295 296 296 296 299 300 304 305 308 309 315 318 317 315 316 313 310 310 310 308 307 306 305 304 302 301 301 300 298 297 296 295 293 293 293 292
293 294 284 285 278 276 283 285 286 289 291 293 293 294 295 296 296 299 301 301 303 305 306 307 311 317 315 314 313 311 310 310 309 306 304 304 303 302 301 300 299 297 296 295 294 293 292 291 291
289 287 287 286 280 274 276 280 291 290 291 291 293 295 295 294 295 297 301 303 303 305 304 304 305 306 310 313 312 311 310 309 309 307 305 304 302 302 300 300 297 296 295 294 293 292 292 290 290
289 288 288 280 275 275 276 279 293 291 293 296 296 296 296 296 295 297 298 299 300 304 306 304 305 305 305 308 310 311 310 308 306 306 304 303 301 301 300 299 297 295 294 294 291 291 291 289 288
Wind_Speed
3 3 3 4 4 3 8 12 12 19 1 5 3 8 9 6 2 3 6 20 20 19 17 19 22 21 21 18 17 16 16 16 14 12 12 12 12 11 9 9 8 10 13 12 11 11 10 9 8
2 3 2 3 4 2 9 11 9 10 6 2 7 8 7 6 5 11 9 16 23 18 16 17 22 21 21 19 18 17 16 16 15 13 12 12 13 13 11 11 11 11 12 12 12 11 10 9 8
1 4 3 5 4 9 7 7 7 3 8 6 6 7 6 4 5 4 16 17 19 16 15 16 20 21 20 19 17 16 16 15 15 14 12 11 12 14 15 13 12 11 12 12 11 11 10 9 8
1 4 4 1 11 14 14 20 8 4 5 6 3 8 5 6 5 12 19 18 17 15 14 18 19 19 20 18 17 15 15 15 14 14 15 14 14 14 15 13 13 12 11 11 11 11 10 9 8
2 2 2 4 11 14 17 18 15 2 2 4 3 6 8 3 10 25 23 17 17 12 11 14 17 18 19 19 17 15 14 14 14 15 16 16 15 13 14 14 13 14 12 11 11 11 10 9 8
2 4 3 6 13 15 10 11 9 3 5 5 2 9 4 11 10 13 19 18 17 15 13 12 15 15 17 17 15 14 13 14 15 17 16 16 15 14 14 14 14 13 12 11 11 10 9 7 6
7 1 7 9 11 16 15 8 2 3 5 5 1 6 3 7 7 7 10 14 17 16 14 12 10 12 13 13 14 13 12 15 18 18 18 15 14 15 15 14 13 12 11 11 10 9 7 5 4
5 5 8 7 8 16 13 14 1 2 1 3 4 7 5 5 9 13 14 14 14 13 13 13 10 8 7 9 14 13 15 17 18 18 19 16 14 14 15 14 13 11 11 11 9 7 6 4 3
5 1 9 7 11 18 8 9 10 7 2 1 1 7 12 19 17 14 14 12 11 9 11 12 13 11 10 9 11 15 17 17 18 17 20 14 7 7 10 11 14 13 11 9 9 8 6 3 2
3 6 11 11 16 12 7 7 6 6 8 5 6 8 20 23 19 18 16 15 14 15 12 11 11 11 10 8 9 10 11 9 8 9 13 7 7 7 8 11 12 12 12 12 10 7 4 1 2
9 7 8 10 11 9 6 9 6 6 8 7 6 14 17 19 18 17 13 15 15 14 11 13 12 12 12 9 7 5 5 6 6 10 9 5 6 6 4 4 5 5 8 3 5 5 3 3 4
7 12 11 12 11 6 8 8 11 6 9 8 9 18 15 14 18 19 17 17 15 15 15 14 14 14 12 8 7 7 7 6 6 8 9 6 6 6 5 3 5 5 4 5 4 3 5 5 6
9 10 10 12 15 12 12 8 10 10 11 11 12 18 20 19 18 16 17 15 17 16 15 16 15 15 13 12 9 8 9 8 8 8 8 8 8 7 6 5 5 4 4 4 5 5 5 5 6
6 12 16 16 18 16 18 16 11 19 10 12 13 11 20 21 21 16 15 16 19 19 16 15 16 16 15 13 13 10 9 10 9 8 8 10 8 7 6 6 5 5 5 5 5 5 5 5 5
8 10 14 14 8 10 10 17 15 20 18 21 17 16 16 23 22 22 20 21 21 17 18 16 16 15 14 15 14 11 10 10 10 9 11 9 8 7 7 6 5 5 4 7 5 5 5 5 4
10 8 10 10 13 18 12 24 21 17 18 17 22 18 17 22 27 23 22 22 22 19 20 17 13 16 14 15 13 10 8 9 8 9 7 8 8 9 7 5 5 5 5 5 5 5 5 5 5
8 12 13 15 18 20 14 24 21 13 12 15 9 9 12 10 21 23 25 24 24 23 22 22 17 16 16 12 9 7 8 7 7 7 7 7 8 8 7 5 5 6 5 5 5 2 5 4 4
6 10 13 17 13 13 13 16 9 10 7 9 9 10 8 8 14 22 25 22 24 23 23 22 20 18 16 10 5 3 7 6 6 7 8 8 7 7 7 6 7 6 5 5 4 5 3 5 6
19 20 21 19 17 18 16 20 14 9 8 7 8 8 10 10 10 12 22 23 22 21 21 22 21 20 15 10 10 7 9 7 5 7 9 8 7 7 6 5 8 6 6 6 7 4 6 2 4
19 20 21 22 11 14 16 27 14 8 8 9 10 8 10 8 10 10 13 21 24 26 24 21 22 22 18 13 11 5 5 2 6 6 8 9 7 7 6 9 8 7 6 7 6 6 4 3 6
23 15 22 21 12 13 12 27 15 6 8 10 9 10 6 5 9 7 9 24 24 23 26 25 26 24 20 16 11 7 5 3 4 5 8 9 10 7 7 8 8 7 6 7 6 7 7 5 2
25 6 15 13 10 12 6 15 27 7 10 13 9 19 18 17 15 12 12 14 21 22 23 22 23 22 20 19 16 20 14 11 7 5 7 7 9 7 7 8 8 7 6 8 6 5 4 5 5
17 5 5 5 7 7 24 3 22 5 10 8 15 16 14 14 16 17 18 15 13 14 18 17 19 19 18 19 18 15 15 9 5 7 9 8 5 7 5 6 6 7 5 6 7 5 5 4 4
13 4 3 4 2 7 19 5 19 4 7 12 10 11 11 13 14 17 19 23 8 1 14 15 18 17 16 16 17 17 16 12 10 10 9 6 6 5 5 5 5 5 5 6 5 5 6 5 4
11 1 4 4 3 9 7 5 2 10 15 14 15 16 18 15 10 14 18 18 19 15 3 8 12 14 14 14 11 14 14 15 15 14 11 11 8 6 7 5 4 3 5 6 5 6 4 4 5
6 1 3 5 3 5 7 6 5 10 13 16 19 19 22 23 21 21 12 12 15 16 10 4 8 14 13 13 11 7 11 9 9 12 10 9 9 9 7 6 6 6 6 6 6 3 4 3 5
3 2 7 4 6 4 5 3 6 10 12 12 14 16 18 20 20 21 24 13 8 8 12 7 5 11 10 12 8 6 8 11 8 11 10 10 10 8 10 9 8 9 9 8 8 3 5 4 5
1 3 1 0 5 7 6 10 4 4 8 8 12 12 13 16 15 19 18 21 15 5 4 7 7 2 6 7 9 10 12 7 7 8 12 13 12 13 13 11 11 11 10 9 8 6 5 6 3
1 2 3 2 3 4 6 7 4 9 7 7 4 6 7 8 8 8 5 2 17 20 2 2 3 5 4 6 7 7 7 9 10 10 11 13 13 15 16 16 15 14 14 11 9 9 8 7 6
11 7 5 3 6 4 2 6 10 10 10 10 8 9 11 11 9 10 10 8 8 3 12 11 5 4 5 6 6 7 10 10 9 9 10 11 13 13 15 14 13 14 14 14 14 13 11 9 9
Wind_Direction
274 238 153 16 44 94 259 255 241 292 57 293 98 73 118 46 45 139 92 117 130 135 144 139 138 139 136 139 138 137 134 131 125 119 117 113 116 114 114 122 126 125 120 115 107 92 83 74 57
340 317 85 287 132 308 272 236 290 238 183 70 29 91 49 43 17 101 91 132 134 140 145 143 140 141 139 141 141 141 138 133 129 122 117 112 115 114 106 109 114 112 109 108 102 98 85 70 56
251 189 102 164 208 227 260 276 293 284 68 50 24 60 81 101 36 70 121 133 130 143 142 143 142 143 141 143 144 145 139 136 132 124 116 107 109 114 109 97 95 103 95 92 99 97 90 70 48
255 358 331 115 266 266 252 284 310 333 89 100 104 86 73 155 110 122 130 136 133 144 145 139 141 144 143 143 145 146 143 141 136 131 126 121 111 108 109 103 105 113 113 108 104 96 86 71 49
35 311 260 281 271 268 281 283 278 1 50 36 153 115 101 47 122 138 143 139 137 138 139 138 141 146 146 146 148 150 151 149 140 138 134 127 122 119 114 107 109 109 107 106 101 93 80 65 46
322 121 337 277 275 286 285 294 267 45 43 345 73 111 90 136 140 143 140 145 145 133 143 143 143 148 149 149 152 155 160 151 142 134 132 120 126 126 117 116 114 112 113 108 101 94 88 71 50
172 166 247 263 281 297 295 303 331 68 33 2 268 70 119 135 158 127 120 129 131 137 143 142 151 152 150 153 159 167 162 143 138 132 123 119 131 127 125 122 120 121 118 114 108 102 97 92 65
167 137 271 258 281 280 296 321 109 91 275 32 81 124 175 175 136 92 101 111 123 133 144 148 148 151 155 158 134 127 132 134 132 129 122 132 135 131 130 130 128 125 127 126 120 117 113 111 83
255 324 261 256 277 277 311 349 341 332 91 81 93 114 146 147 117 111 110 115 123 133 148 152 155 149 145 141 138 133 135 133 135 134 128 139 137 135 133 137 138 140 139 137 136 134 127 99 67
153 221 243 236 254 266 309 320 306 13 334 296 71 112 146 150 143 143 154 152 155 158 163 156 157 146 138 142 144 141 143 143 144 143 147 152 151 138 133 144 146 149 152 155 157 146 120 32 16
272 245 251 262 256 280 283 324 295 313 306 273 232 169 163 156 155 154 158 167 169 162 166 169 160 150 149 151 148 150 147 153 151 155 162 147 149 137 134 145 151 156 163 165 147 142 155 128 134
280 274 279 287 291 297 303 294 296 274 258 266 295 163 162 182 165 169 168 168 169 171 174 173 169 158 159 155 159 162 158 167 165 176 174 144 145 145 149 166 175 168 166 162 150 142 126 102 96
270 280 295 308 308 304 306 295 271 264 259 279 294 151 174 187 187 179 178 174 163 177 175 174 168 170 161 163 167 173 173 176 176 178 179 160 157 159 157 176 179 183 176 155 159 131 126 96 91
284 294 292 293 291 293 290 286 292 282 269 255 249 257 180 189 192 187 180 179 179 177 180 167 175 174 165 172 175 180 184 177 179 179 172 166 164 165 170 176 176 173 171 150 144 145 133 118 103
318 308 296 284 285 273 291 278 261 261 253 249 243 230 206 192 190 192 185 182 180 183 173 177 175 176 176 178 180 182 186 180 179 175 168 170 163 167 163 159 153 155 137 128 123 121 121 114 109
305 290 278 268 264 265 251 269 263 253 251 246 239 233 233 195 193 192 192 185 179 170 177 178 177 181 184 184 185 187 180 173 169 167 165 167 167 161 160 152 155 148 133 131 131 140 134 133 141
237 255 256 276 253 258 248 260 263 257 239 236 222 216 233 231 198 195 193 192 180 175 172 173 182 185 191 194 186 176 158 156 162 161 169 161 169 160 154 155 154 153 140 140 153 144 140 145 144
247 249 256 262 276 274 267 270 274 266 274 230 233 235 241 206 191 206 200 190 179 175 175 176 173 181 185 187 176 146 155 152 148 159 166 160 171 160 156 153 154 151 147 160 153 145 159 146 156
255 267 273 273 282 284 289 285 280 275 289 279 265 242 230 233 252 195 192 186 175 172 173 180 178 176 177 177 178 169 183 156 145 165 162 161 168 167 155 163 155 150 159 169 158 134 137 118 132
268 273 276 285 294 291 306 289 282 270 275 274 267 248 250 247 238 246 176 173 180 178 177 178 181 174 177 177 179 162 168 140 161 158 164 164 169 172 164 166 170 157 154 158 162 146 137 123 159
270 271 275 274 284 274 297 284 285 318 279 285 283 259 252 320 332 324 198 176 183 176 178 181 183 177 174 177 163 138 129 107 149 161 168 171 170 179 168 170 167 164 158 164 169 159 150 146 175
274 273 299 309 327 288 88 292 288 272 295 299 38 42 20 19 20 0 3 195 185 183 179 178 175 175 171 164 173 168 172 182 191 160 173 188 177 178 177 178 170 163 162 163 164 160 161 134 156
270 47 31 353 327 340 283 201 284 23 282 20 45 37 32 16 16 6 4 344 213 162 172 174 169 176 174 171 174 173 175 183 144 149 168 180 182 178 181 179 162 158 156 159 155 159 156 151 147
295 308 351 259 196 241 273 186 275 51 44 49 42 37 29 22 21 8 9 16 345 158 163 172 170 173 174 176 173 172 177 164 160 160 165 176 175 178 187 172 156 146 145 153 146 146 155 147 159
19 320 314 302 219 252 338 329 177 42 40 47 20 10 13 10 9 30 11 21 20 354 170 164 167 172 171 180 176 182 173 168 167 162 171 170 175 187 185 157 153 149 130 128 127 130 129 139 123
310 139 205 243 271 328 321 263 102 36 35 30 29 12 9 7 4 4 16 23 18 11 337 140 172 158 175 182 175 155 168 170 165 168 166 170 180 180 157 148 131 115 101 102 94 85 85 102 106
338 296 170 191 219 249 225 196 83 79 64 51 43 13 359 358 1 353 357 348 19 40 349 352 210 163 162 173 146 123 155 162 153 164 160 170 170 160 147 144 132 130 124 124 106 104 83 79 73
17 344 349 334 241 241 247 243 189 110 97 65 35 6 343 356 350 342 347 343 332 339 359 51 13 333 162 176 167 161 161 172 158 150 164 174 168 164 155 152 146 144 139 131 116 109 109 92 97
54 311 33 311 166 205 263 269 143 161 152 111 16 329 285 286 291 294 217 121 331 324 18 46 64 67 64 177 174 168 173 186 188 180 177 179 168 166 166 159 154 149 147 136 139 138 145 148 139
281 243 178 202 240 227 159 273 160 175 182 202 219 240 240 245 259 275 291 252 202 221 327 329 323 291 137 135 174 194 184 184 184 185 178 172 171 166 166 163 159 155 160 160 158 157 161 161 150